#timestamp,LO_Frequency,Hit,StdDev 
1517148015.1,286046998.9,N
1517148035.9,286047001.5,P
1517148055.7,286046999.8,N
1517148075.6,286047000.3,N
1517148095.4,286047002.0,N
1517148115.2,286047002.7,N
1517148135.1,286046999.9,N
1517148136.0,286046999.9,N
1517148155.8,286047000.3,N
1517148175.6,286047000.6,N
1517148195.5,286047000.8,N
1517148215.3,286047002.1,N
1517148235.2,286047002.5,N
1517148255.9,286047000.5,N
1517148275.7,286047002.7,N
1517148295.6,286047002.8,N
1517148315.4,286046999.9,N
1517148335.3,286047000.3,N
1517148355.1,286047000.9,N
1517148356.0,286047000.9,N
1517148375.8,286046998.4,N
1517148395.7,286046998.3,N
1517148415.5,286046996.9,N
1517148435.3,286046997.9,N
1517148455.2,286046997.5,N
1517148475.0,286046996.2,N
1517148475.9,286046996.2,N
1517148495.8,286046993.3,Y
1517148515.6,286046995.9,P
1517148535.4,286046998.0,N
1517148555.3,286046996.2,N
1517148575.1,286046996.3,N
1517148595.9,286046993.7,Y
1517148615.7,286046997.6,P
1517148635.5,286046996.7,P
1517148655.4,286046996.5,P
1517148675.2,286047001.1,N
1517148695.0,286046999.4,N
1517148696.0,286046999.4,N
1517148715.8,286046994.9,Y
1517148735.6,286046999.6,P
1517148755.5,286046999.1,N
1517148775.3,286046999.4,N
1517148795.1,286046998.8,N
1517148815.9,286046999.6,N
1517148835.7,286046998.7,N
1517148855.6,286046997.1,Y
1517148875.4,286046997.3,P
1517148895.2,286046995.1,P
1517148915.1,286046997.3,N
1517148916.0,286046997.3,N
1517148935.8,286046997.6,N
1517148955.7,286046997.3,N
1517148975.5,286046994.9,Y
1517148995.3,286046998.9,P
1517149015.2,286046998.6,N
1517149035.0,286046998.3,N
1517149035.9,286046998.3,N
1517149055.8,286046999.6,N
1517149075.6,286046997.4,Y
1517149095.4,286047000.5,P
1517149115.3,286046997.0,P
1517149135.1,286046996.7,N
1517149155.8,286046997.8,N
1517149175.7,286046997.9,N
1517149195.5,286046995.9,Y
1517149215.4,286046999.5,P
1517149235.2,286046999.2,N
1517149255.0,286046996.9,P
1517149255.9,286046996.9,Y
1517149275.8,286046999.8,P
1517149295.6,286047002.4,P
1517149315.5,286047002.3,N
1517149335.3,286047000.0,N
1517149355.1,286047000.0,N
1517149375.9,286047000.5,N
1517149395.7,286046998.3,N
1517149415.6,286046998.1,N
1517149435.4,286047001.1,N
1517149455.2,286046999.6,N
1517149475.1,286046998.2,N
1517149476.0,286046998.2,N
1517149495.8,286047001.2,N
1517149515.6,286047001.1,N
1517149535.5,286046998.8,N
1517149555.3,286047000.2,N
1517149575.2,286047000.0,N
1517149595.9,286047000.4,N
1517149615.7,286047001.0,N
1517149635.6,286046998.6,N
1517149655.4,286046998.9,N
1517149675.3,286047000.9,N
1517149695.1,286046998.9,N
1517149696.0,286046998.9,N
1517149715.8,286046998.3,N
1517149735.7,286046999.0,N
1517149755.5,286046997.8,N
1517149775.3,286046997.8,N
1517149795.2,286046996.8,N
1517149815.0,286046997.2,N
1517149815.9,286046997.2,N
1517149835.8,286046997.7,N
1517149855.6,286046996.8,N
1517149875.4,286046997.5,N
1517149895.3,286046998.0,N
1517149915.1,286046996.6,N
1517149935.9,286046997.2,N
1517149955.7,286046995.5,Y
1517149975.5,286046997.3,P
1517149995.4,286046998.7,N
1517150015.2,286046998.2,N
1517150035.0,286047001.1,N
1517150036.0,286047001.1,N
1517150055.8,286046999.9,N
1517150075.6,286046999.7,N
1517150095.5,286047001.1,N
1517150115.3,286046999.0,N
1517150135.1,286046999.2,N
1517150155.9,286046999.2,N
1517150175.7,286046996.9,N
1517150195.6,286046999.6,N
1517150215.4,286046996.7,N
1517150235.2,286046998.9,N
1517150255.1,286046999.1,N
1517150256.0,286046999.1,N
1517150275.8,286046999.6,N
1517150295.6,286046997.7,N
1517150315.5,286046997.4,N
1517150335.3,286046999.4,N
1517150355.2,286046998.9,N
1517150375.0,286046999.2,N
1517150375.9,286046999.2,N
1517150395.7,286046999.4,N
1517150415.6,286046998.4,N
1517150435.4,286046997.7,N
1517150455.3,286046995.7,Y
1517150475.1,286046999.4,P
1517150495.8,286046999.1,P
1517150515.7,286046998.1,P
1517150535.5,286046999.2,N
1517150555.4,286046996.5,Y
1517150575.2,286046998.5,P
1517150595.0,286047001.0,P
1517150595.9,286047001.0,N
1517150615.8,286047000.5,N
1517150635.6,286047001.0,N
1517150655.4,286046998.7,N
1517150675.3,286047000.8,N
1517150695.1,286047001.0,N
1517150715.9,286046998.3,N
1517150735.7,286046998.7,N
1517150755.5,286046999.1,N
1517150775.4,286046998.3,N
1517150795.2,286046996.9,N
1517150815.1,286046995.5,Y
1517150816.0,286046995.5,P
1517150835.8,286046994.9,N
1517150855.6,286046996.7,N
1517150875.5,286046998.0,N
1517150895.3,286046997.3,N
1517150915.1,286046997.1,N
1517150935.9,286046996.9,N
1517150955.7,286046998.7,N
1517150975.6,286047000.5,N
1517150995.4,286047000.3,N
1517151015.2,286046998.1,N
1517151035.1,286046999.0,N
1517151036.0,286046999.0,N
1517151055.8,286046996.7,N
1517151075.7,286046999.2,N
1517151095.5,286046996.9,N
1517151115.3,286046995.3,Y
1517151135.2,286046996.6,P
1517151155.0,286046997.0,P
1517151155.9,286046997.0,P
1517151175.8,286046997.1,Y
1517151195.6,286047001.1,P
1517151215.4,286047000.8,N
1517151235.3,286047001.2,N
1517151255.1,286046998.4,N
1517151275.8,286046999.6,N
1517151295.7,286046999.5,N
1517151315.5,286046998.7,N
1517151335.4,286047000.7,N
1517151355.2,286047002.8,N
1517151375.0,286047002.0,N
1517151375.9,286047002.0,N
1517151395.8,286047001.5,N
1517151415.6,286047001.8,N
1517151435.5,286047002.1,N
1517151455.3,286047002.8,N
1517151475.1,286047001.2,N
1517151495.9,286047000.9,N
1517151515.7,286046999.2,N
1517151535.5,286046999.5,N
1517151555.4,286046999.5,N
1517151575.2,286046999.6,N
1517151595.1,286046998.7,N
1517151596.0,286046998.7,N
